Regional Weather Roundup
Issued by NWS

Home | Current Version | Previous Version | Text Only | Print | Product List | Glossary On
Versions: 1 2 3 4 5 6 7 8 9 10 11 12 13 14 15 16 17 18 19 20 21 22 23 24 25 26 27 28 29 30 31 32 33 34 35 36 37 38 39 40 41 42 43 44 45 46 47 48 49 50
000
ASUS44 KFWD 301515
RWRTX
NORTH TEXAS HOURLY WEATHER ROUNDUP
NATIONAL WEATHER SERVICE FORT WORTH TX
1000 AM CDT MON MAY 30 2016

NOTE: "FAIR" INDICATES FEW OR NO CLOUDS BELOW 12,000 FEET WITH NO
SIGNIFICANT WEATHER AND/OR OBSTRUCTIONS TO VISIBILITY.

TXZ118-119-301600-
DALLAS/FORT WORTH METROPLEX

CITY           SKY/WX    TMP DP  RH WIND       PRES   REMARKS
DFW AIRPORT    CLOUDY    73  65  75 NE5       30.01F
DALLAS LOVE    CLOUDY    72  66  81 VRB5      30.01F
FTW MEACHAM    CLOUDY    73  66  78 N6        30.02F
DAL-EXECUTIVE  CLOUDY    71  64  78 NE5       30.01F
FTW-ALLIANCE   PTSUNNY   72  66  81 NE5       30.03S
FTW-NAS-JRB    CLOUDY    73  66  78 N5        30.03F
FTW-SPINKS     SUNNY     72  64  78 N5        30.05F
ARLINGTON      CLOUDY    75  65  70 N7        30.02F
GRAND PRAIRIE  SUNNY     70  64  83 N6        30.03F
ADDISON        MOSUNNY   72  66  83 CALM      30.02F
MESQUITE       SUNNY     73  66  78 VRB3      30.02F
LANCASTER      CLOUDY    71  63  78 N3        30.02F
$$

TXZ091>094-102>105-117-120-121-131>134-301600-
NORTH CENTRAL TEXAS

CITY           SKY/WX    TMP DP  RH WIND       PRES   REMARKS
SHRMAN/DENISON CLOUDY    68  62  80 SE7       30.05S
GAINESVILLE    PTSUNNY   70  66  86 CALM      30.05F
BOWIE          CLOUDY    70  65  83 SE3       30.04F
BRIDGEPORT     PTSUNNY   71  66  85 CALM      30.06F
DECATUR        CLOUDY    69  67  93 NE3       30.05F
DENTON         CLOUDY    72  66  81 NE5       30.02F
MCKINNEY       CLOUDY    71  67  87 SE5       30.02F
GREENVILLE     CLOUDY    70  66  88 E5        30.03F
ROCKWALL       PTSUNNY   72  67  85 E6        30.00F
TERRELL        CLOUDY    73  67  81 NE5       30.02F
WAXAHACHIE     CLOUDY    71  65  81 N5        30.03F
CLEBURNE       CLOUDY    70  66  88 N5        30.06S
GRANBURY       CLOUDY    71  65  82 NW3       30.06S
$$

TXZ083>090-098>101-113>116-127>130-139>142-154-155-301600-
WESTERN NORTH TEXAS

CITY           SKY/WX    TMP DP  RH WIND       PRES   REMARKS
WICHITA FALLS  MOSUNNY   71  65  81 E5        30.05F
WF-KICKAPOO    SUNNY     73  64  73 CALM      30.06F
VERNON         CLOUDY    70  59  67 S5        30.08S
ABILENE        CLOUDY    68  64  87 SW10      30.08R
ABILENE-DYESS  CLOUDY    70  63  78 S6        30.06S
GRAHAM         CLOUDY    70  66  87 N3        30.04F
MINERAL WELLS  CLOUDY    71  66  84 VRB3      30.04S
STEPHENVILLE   CLOUDY    67  62  82 N5        30.09S
COMANCHE       CLOUDY    67  64  89 SW9       30.05S
BROWNWOOD      MOSUNNY   70  63  78 SW9       30.06R
COLEMAN        SUNNY     71  62  74 SW9       30.06S
$$

TXZ143>147-156>162-174-175-301600-
CENTRAL TEXAS

CITY           SKY/WX    TMP DP  RH WIND       PRES   REMARKS
WACO           CLOUDY    71  61  70 N7        30.02R
WACO-TSTC      SUNNY     72  64  78 N6        30.03R
WACO-MCGREGOR  CLOUDY    70  61  73 N9        30.02R THUNDER
HILLSBORO      CLOUDY    70  64  82 N6        30.03S
CORSICANA      CLOUDY    73  68  84 NE9       30.02F
MEXIA          CLOUDY    73  71  92 NW7       30.01R
HEARNE         CLOUDY    73  72  96 S15G21    30.00F
CAMERON        LGT RAIN  71  66  84 SW16G22   29.99F
TEMPLE         CLOUDY    70  63  78 NW21G28   30.00R
KILLEEN        CLOUDY    66  63  89 W14       30.01R
KILLEEN-SKYLRK CLOUDY    68  62  81 NW12      30.00R
FORT HOOD      CLOUDY    68  62  83 NW16G22   29.99R HAZE
GATESVILLE     CLOUDY    70  64  83 N5        30.07R
HAMILTON       CLOUDY    68  64  88 W6        30.06R
LAMPASAS       CLOUDY    68  66  93 SW8       30.03F
$$

TXZ095>097-106>112-122>126-135>138-148>153-164>167-301600-
EAST TEXAS

CITY           SKY/WX    TMP DP  RH WIND       PRES   REMARKS
PARIS          CLOUDY    66  61  82 E5        30.06S
SULPHUR SPRNGS CLOUDY    70  68  94 N5        30.06F
MOUNT PLEASANT CLOUDY    72  66  81 NW7       30.07F
GILMER         CLOUDY    71  66  86 CALM      30.05R
MINEOLA        CLOUDY    70  68  94 CALM      30.05R
TYLER          CLOUDY    72  68  87 N3        30.03R
LONGVIEW       PTSUNNY   75  69  81 SE6       30.02F
MARSHALL       PTSUNNY   75  67  77 CALM      30.06F
ATHENS         CLOUDY    68  68 100 CALM      30.02R
PALESTINE      CLOUDY    75  72  90 E6        30.00F
JACKSONVILLE   CLOUDY    74  72  91 CALM      30.06R
HENDERSON      CLOUDY    75  71  89 SE5       30.04S
CENTER         FAIR      79  72  79 CALM      30.04F
NACOGDOCHES    CLOUDY    73  72  94 SE7       30.02F
LUFKIN         CLOUDY    76  72  87 S6        30.04F
$$

SUPPLEMENTAL OBSERVATIONS (CENTRAL)

CITY           SKY/WX    TMP DP  RH WIND       PRES   REMARKS
LAKE TEXOMA      N/A     70  66  88 SE2         N/A
PAT MAYSE LAKE   N/A     66  64  94 N2          N/A
GREENVILLE       N/A     70  66  88 E6          N/A
CEDAR HILL       N/A     72  64  78 NE3         N/A
ATHENS           N/A     72  68  88 E5          N/A
LAKE LIMESTONE   N/A     75  70  83 E3G20       N/A
TEMPLE           N/A     70  63  78 S20G30      N/A
$$

SUPPLEMENTAL OBSERVATIONS (WEST)

CITY           SKY/WX    TMP DP  RH WIND       PRES   REMARKS
POSSUM KINGDOM   N/A     72  66  83 N2          N/A
GRANBURY         N/A     72  66  83 NW5         N/A
COMANCHE         N/A     70  64  83 SW8         N/A
HAMBY            N/A     72  64  78 SW9         N/A
IVIE RESERVOIR   N/A     73  63  68 S12         N/A
COLORADO BEND    N/A     66  61  82 W7G18       N/A
$$

SUPPLEMENTAL OBSERVATIONS (EAST)

CITY           SKY/WX    TMP DP  RH WIND       PRES   REMARKS
CLARKSVILLE      N/A     70  66  88 VRB3        N/A
TEXARKANA        N/A     79  70  73 E1          N/A
LINDEN           N/A     79  68  69 E5          N/A
CADDO LAKE       N/A     81  68  65 CALM        N/A
GILMER           N/A     72  66  83 N2          N/A
HENDERSON        N/A     75  72  88 SE6         N/A
LUFKIN           N/A     75  72  88 MISG        N/A
N SABINE NF      N/A     81  70  69 MISG        N/A
S SABINE NF      N/A     82  70  65 E3          N/A
$$

SUPPLEMENTAL OBSERVATIONS ARE A COLLECTION OF AUTOMATED INSTRUMENTS
THAT ARE MAINTAINED BY A VARIETY OF FEDERAL AND STATE AGENCIES.
CERTAIN ELEMENTS...SUCH AS HUMIDITY VALUES AND SUSTAINED WIND
SPEEDS...MAY BE APPROXIMATED.





USA.gov is the U.S. government's official web portal to all federal, state and local government web resources and services.